[[{"header":{"parameterUnit":"m.s-1","parameterCategory":1,"la1":30.2992,"la2":30.254,"lo1":-89.0895,"lo2":-89.0443,"dy":0.0025,"dx":0.0025,"nx":19,"ny":19,"refTime":"2026-03-21T03:00:00:Z","depth":0,"parameterNumber":2,"parameterNumberName":"U-component_of_WINDS"},"data":[0,0,0,4.3284,4.3288,4.3483,4.3484,4.3739,4.3742,0,0,0,0,0,0,0,0,0,0,0,4.323,4.3232,4.3283,4.3288,4.3483,4.3484,4.3739,4.3742,0,0,0,0,0,0,0,0,0,0,0,4.3229,4.3231,4.3234,4.3289,4.3483,4.3484,4.3738,4.3589,0,0,0,0,0,0,0,0,0,0,4.3398,4.3354,4.3231,4.3234,4.329,4.3483,4.3484,4.3582,4.3598,4.3654,0,4.3705,0,4.3727,4.3759,4.376,0,0,0,4.3285,4.334,4.3388,4.3234,4.3292,4.3482,4.3394,4.3591,4.361,4.3676,4.3708,4.3718,4.3732,4.3761,4.3762,4.4093,4.4094,0,0,4.3274,4.3268,4.3375,4.3401,4.3372,4.3388,4.34,4.3602,4.3637,4.3709,4.3723,4.3736,4.3763,4.3765,4.4091,4.4093,0,0,0,4.3245,4.326,4.3304,4.339,4.3425,4.3394,4.3408,4.3628,4.3643,4.3726,4.3739,4.3764,4.3767,4.4089,4.4092,4.4168,0,0,0,4.3239,4.3243,4.3299,4.3297,4.3421,4.3529,4.3429,4.3629,4.3652,4.3737,4.3764,4.377,4.4087,4.4091,4.4162,4.4206,0,0,0,4.3216,4.3241,4.327,4.3296,4.338,4.3526,4.3552,4.3634,4.366,4.376,4.3771,4.4086,4.409,4.4157,4.4197,4.429,0,0,0,4.319,4.3337,4.3271,4.344,4.3378,4.3572,4.3551,4.3696,4.3791,4.3766,4.4088,4.4092,4.4155,4.4191,4.4284,4.4366,4.44,0,0,4.3372,4.3358,4.3458,4.3406,4.3609,4.3543,4.3758,4.3852,4.3868,4.4016,4.4025,4.4164,4.4196,4.4289,4.4594,4.462,0,0,0,4.3514,4.3585,4.3641,4.3731,4.3806,4.3873,4.3935,4.3969,4.4096,4.3943,4.4223,4.4243,4.4297,4.4337,4.436,4.4406,4.411,4.4109,4.4109,4.3762,4.3773,4.3939,4.3973,4.4061,4.4122,4.4194,4.4251,4.4238,4.4304,4.4348,4.4532,4.4578,4.4595,4.4643,4.4393,4.4393,4.4394,4.4394,4.4029,4.4132,4.4109,4.4261,4.4272,4.44,4.4464,4.445,4.457,4.45,4.4548,4.447,4.4624,4.4667,4.44,4.4399,4.4398,4.4397,4.4397,4.4192,4.4243,4.4282,4.4413,4.4512,4.4541,4.4657,4.4663,4.467,4.4718,4.4764,4.4763,4.4761,4.4739,4.474,4.4741,4.4741,4.4742,4.4742,4.4346,4.4388,4.4485,4.4575,4.4633,4.4709,4.4771,4.4828,4.4892,4.4887,4.4888,4.4867,4.4637,4.4579,4.4752,4.475,4.4749,4.4748,4.4747,4.4612,4.4552,4.4702,4.476,4.4865,4.4962,4.4968,4.5083,4.513,4.5187,4.5156,4.4985,4.4972,4.4954,4.4906,4.5153,4.5153,4.5153,4.5153,4.4749,4.4743,4.4896,4.4988,4.5078,4.5098,4.5265,4.5314,4.5355,4.5385,4.535,4.5286,4.5267,4.5266,4.5241,4.5196,4.5511,4.5512,4.5512,4.4913,4.4915,4.5057,4.5096,4.5178,4.5248,4.5405,4.5511,4.5545,4.5527,4.5408,4.5393,4.529,4.5257,4.5236,4.5197,4.5115,0,0]},{"header":{"parameterUnit":"m.s-1","parameterCategory":1,"la1":30.2992,"la2":30.254,"lo1":-89.0895,"lo2":-89.0443,"dy":0.0025,"dx":0.0025,"nx":19,"ny":19,"refTime":"2026-03-21T03:00:00:Z","depth":0,"parameterNumber":3,"parameterNumberName":"V-component_of_WINDS"},"data":[0,0,0,2.7123,2.7125,2.7268,2.7268,2.7447,2.7449,0,0,0,0,0,0,0,0,0,0,0,2.708,2.7081,2.7122,2.7126,2.7268,2.7268,2.7447,2.7449,0,0,0,0,0,0,0,0,0,0,0,2.708,2.7081,2.7083,2.7126,2.7267,2.7268,2.7447,2.734,0,0,0,0,0,0,0,0,0,0,2.7203,2.7164,2.7081,2.7083,2.7127,2.7267,2.7268,2.7335,2.7347,2.7382,0,2.7415,0,2.7435,2.7461,2.7462,0,0,0,2.7126,2.7154,2.7192,2.7083,2.7128,2.7267,2.7204,2.7342,2.7355,2.7398,2.7418,2.7424,2.7438,2.7462,2.7463,2.767,2.7671,0,0,2.7118,2.7106,2.7183,2.7201,2.718,2.7199,2.7208,2.735,2.737,2.7418,2.7428,2.7441,2.7463,2.7465,2.7669,2.767,0,0,0,2.7095,2.71,2.7135,2.7194,2.7219,2.7203,2.7214,2.7364,2.7376,2.743,2.7443,2.7464,2.7466,2.7668,2.7669,2.7706,0,0,0,2.7091,2.7087,2.7132,2.7126,2.7217,2.7294,2.7224,2.7366,2.7383,2.7442,2.7464,2.7468,2.7667,2.7669,2.7703,2.7726,0,0,0,2.7071,2.7085,2.7105,2.7125,2.7185,2.7292,2.7312,2.737,2.739,2.7462,2.7469,2.7666,2.7668,2.77,2.7721,2.7776,0,0,0,2.7046,2.7136,2.7106,2.721,2.7184,2.7313,2.7312,2.7408,2.7474,2.7465,2.7667,2.7669,2.7699,2.7718,2.7773,2.7822,2.7841,0,0,2.7153,2.7148,2.7211,2.7188,2.7319,2.7292,2.7429,2.75,2.7518,2.7618,2.7623,2.7704,2.772,2.7776,2.7949,2.7964,0,0,0,2.724,2.7285,2.7322,2.7384,2.7441,2.7491,2.7542,2.7568,2.7654,2.7567,2.7739,2.7749,2.7782,2.7806,2.7819,2.7847,2.7679,2.7679,2.7679,2.7374,2.7391,2.7495,2.7529,2.7589,2.764,2.769,2.7733,2.7734,2.7774,2.7804,2.7907,2.7935,2.7944,2.7974,2.783,2.783,2.7831,2.7831,2.7531,2.7597,2.7594,2.7694,2.7711,2.7795,2.7847,2.7844,2.7923,2.7886,2.7916,2.7875,2.796,2.7987,2.7834,2.7833,2.7833,2.7832,2.7832,2.7622,2.7656,2.7686,2.7776,2.7843,2.7873,2.795,2.7962,2.7975,2.8004,2.8037,2.8036,2.8038,2.8019,2.8019,2.8019,2.802,2.802,2.802,2.7704,2.7736,2.78,2.7866,2.7906,2.7961,2.8011,2.8051,2.8098,2.8101,2.8102,2.8097,2.7965,2.7932,2.8026,2.8025,2.8024,2.8023,2.8023,2.7859,2.7825,2.7923,2.7964,2.8042,2.8107,2.8121,2.82,2.8235,2.8271,2.826,2.816,2.8157,2.8147,2.8119,2.8256,2.8256,2.8256,2.8256,2.7936,2.7934,2.8037,2.8101,2.8164,2.8186,2.8295,2.8334,2.8369,2.8391,2.8372,2.8337,2.8326,2.8329,2.8315,2.829,2.8467,2.8467,2.8467,2.8032,2.8037,2.8129,2.8163,2.8224,2.8275,2.8377,2.8449,2.8482,2.8476,2.8408,2.8399,2.8342,2.8322,2.8317,2.8295,2.8249,0,0]}]]